| time (UTC) | temp F | wind direction | speed MPH | gust MPH | rain 1hr in | rain 24hr in | rain mn in | humidity % | barometer mb |
| 20260502214558 | 63 | 53 | 3.0 | 7.0 | 0.00 | 0.00 | 0.00 | 36 | 1007.1 |
| 20260502213047 | 62 | 127 | 2.0 | 7.0 | 0.00 | 0.00 | 0.00 | 36 | 1007.4 |
| 20260502211545 | 61 | 80 | 1.0 | 9.0 | 0.00 | 0.00 | 0.00 | 37 | 1007.6 |
| 20260502210046 | 62 | 68 | 4.0 | 10.0 | 0.00 | 0.00 | 0.00 | 37 | 1007.7 |
| 20260502204545 | 64 | 53 | 2.0 | 7.0 | 0.00 | 0.00 | 0.00 | 32 | 1007.6 |
| 20260502203042 | 65 | 130 | 2.0 | 8.0 | 0.00 | 0.00 | 0.00 | 31 | 1007.6 |
| 20260502201539 | 64 | 112 | 1.0 | 8.0 | 0.00 | 0.00 | 0.00 | 34 | 1007.8 |
| 20260502200037 | 64 | 93 | 0.0 | 9.0 | 0.00 | 0.00 | 0.00 | 33 | 1008.0 |
| 20260502194537 | 62 | 285 | 0.0 | 8.0 | 0.00 | 0.00 | 0.00 | 39 | 1008.2 |
| 20260502193035 | 62 | 42 | 3.0 | 9.0 | 0.00 | 0.00 | 0.00 | 34 | 1008.4 |
| 20260502191530 | 62 | 86 | 2.0 | 9.0 | 0.00 | 0.00 | 0.00 | 36 | 1008.6 |
| 20260502190026 | 62 | 62 | 1.0 | 7.0 | 0.00 | 0.00 | 0.00 | 35 | 1009.0 |
| 20260502184532 | 61 | 48 | 4.0 | 11.0 | 0.00 | 0.00 | 0.00 | 35 | 1009.1 |
| 20260502183021 | 61 | 63 | 3.0 | 11.0 | 0.00 | 0.00 | 0.00 | 36 | 1009.1 |
| 20260502181521 | 61 | 89 | 2.0 | 9.0 | 0.00 | 0.00 | 0.00 | 39 | 1009.2 |
| 20260502163100 | 56 | 42 | 4.0 | 8.0 | 0.00 | 0.00 | 0.00 | 40 | 1010.1 |
| 20260502161557 | 56 | 110 | 1.0 | 5.0 | 0.00 | 0.00 | 0.00 | 40 | 1010.2 |
| 20260502151540 | 50 | 138 | 0.0 | 1.0 | 0.00 | 0.00 | 0.00 | 50 | 1011.2 |
| 20260502123015 | 34 | 204 | 1.0 | 4.0 | 0.00 | 0.00 | 0.00 | 66 | 1011.7 |
| 20260502121516 | 34 | 215 | 1.0 | 5.0 | 0.00 | 0.00 | 0.00 | 66 | 1011.6 |
| 20260502114513 | 35 | 212 | 2.0 | 6.0 | 0.00 | 0.00 | 0.00 | 66 | 1011.7 |
| 20260502113008 | 35 | 219 | 2.0 | 9.0 | 0.00 | 0.00 | 0.00 | 64 | 1011.6 |
| 20260502111508 | 35 | 222 | 2.0 | 6.0 | 0.00 | 0.00 | 0.00 | 65 | 1011.5 |
| 20260502110007 | 35 | 233 | 2.0 | 6.0 | 0.00 | 0.00 | 0.00 | 65 | 1011.6 |
| 20260502104506 | 35 | 271 | 2.0 | 7.0 | 0.00 | 0.00 | 0.00 | 64 | 1011.6 |
| 20260502103010 | 35 | 211 | 0.0 | 4.0 | 0.00 | 0.00 | 0.00 | 65 | 1011.8 |
| 20260502101501 | 36 | 210 | 1.0 | 5.0 | 0.00 | 0.00 | 0.00 | 63 | 1011.6 |
| 20260502100119 | 36 | 162 | 2.0 | 5.0 | 0.00 | 0.00 | 0.00 | 63 | 1011.4 |
| 20260502071532 | 40 | 236 | 3.0 | 9.0 | 0.00 | 0.00 | 0.00 | 54 | 1011.3 |
| 20260502070036 | 40 | 199 | 3.0 | 10.0 | 0.00 | 0.00 | 0.00 | 54 | 1011.3 |
| 20260502064527 | 40 | 172 | 4.0 | 11.0 | 0.00 | 0.00 | 0.00 | 53 | 1011.2 |
| 20260502063027 | 40 | 236 | 5.0 | 11.0 | 0.00 | 0.00 | 0.00 | 54 | 1011.2 |
| 20260502061523 | 40 | 236 | 3.0 | 10.0 | 0.00 | 0.00 | 0.00 | 54 | 1011.2 |
| 20260502060019 | 40 | 221 | 3.0 | 6.0 | 0.00 | 0.00 | 0.00 | 54 | 1011.1 |
| 20260502054518 | 41 | 237 | 4.0 | 8.0 | 0.00 | 0.00 | 0.00 | 55 | 1011.1 |
| 20260502053017 | 42 | 270 | 3.0 | 11.0 | 0.00 | 0.00 | 0.00 | 54 | 1011.1 |
| 20260502051524 | 42 | 253 | 3.0 | 10.0 | 0.00 | 0.00 | 0.00 | 55 | 1011.1 |
| 20260502050021 | 42 | 217 | 4.0 | 8.0 | 0.00 | 0.00 | 0.00 | 54 | 1011.2 |
| 20260502044514 | 43 | 236 | 3.0 | 9.0 | 0.00 | 0.00 | 0.00 | 54 | 1011.1 |
| 20260502043015 | 43 | 219 | 1.0 | 5.0 | 0.00 | 0.00 | 0.00 | 55 | 1011.1 |
| 20260502041513 | 43 | 229 | 2.0 | 6.0 | 0.00 | 0.00 | 0.00 | 55 | 1011.2 |
| 20260502040012 | 44 | 219 | 1.0 | 4.0 | 0.00 | 0.00 | 0.00 | 55 | 1011.2 |
| 20260502034512 | 44 | 242 | 1.0 | 5.0 | 0.00 | 0.00 | 0.00 | 56 | 1011.0 |
| 20260502033011 | 45 | 230 | 1.0 | 4.0 | 0.00 | 0.00 | 0.00 | 56 | 1010.9 |
| 20260502031511 | 45 | 254 | 1.0 | 4.0 | 0.00 | 0.00 | 0.00 | 57 | 1010.7 |
| 20260502030010 | 45 | 228 | 0.0 | 2.0 | 0.00 | 0.00 | 0.00 | 59 | 1010.4 |
| 20260502024528 | 46 | 210 | 0.0 | 2.0 | 0.00 | 0.00 | 0.00 | 56 | 1010.0 |
| 20260502023009 | 46 | 224 | 0.0 | 1.0 | 0.00 | 0.00 | 0.00 | 59 | 1009.8 |
| 20260502021508 | 48 | 237 | 0.0 | 1.0 | 0.00 | 0.00 | 0.00 | 55 | 1009.7 |
| 20260502020007 | 49 | 236 | 0.0 | 1.0 | 0.00 | 0.00 | 0.00 | 51 | 1009.7 |
| 20260502014519 | 51 | 233 | 0.0 | 0.0 | 0.00 | 0.00 | 0.00 | 47 | 1009.6 |
| 20260502013006 | 53 | 233 | 0.0 | 1.0 | 0.00 | 0.00 | 0.00 | 42 | 1009.7 |
| 20260502011505 | 56 | 278 | 0.0 | 2.0 | 0.00 | 0.00 | 0.00 | 38 | 1009.7 |
| 20260502010005 | 60 | 307 | 0.0 | 6.0 | 0.00 | 0.00 | 0.00 | 32 | 1009.8 |
| 20260502004503 | 64 | 217 | 0.0 | 3.0 | 0.00 | 0.00 | 0.00 | 25 | 1009.8 |
| 20260502003001 | 67 | 314 | 0.0 | 2.0 | 0.00 | 0.00 | 0.00 | 24 | 1009.9 |
| 20260502001602 | 67 | 143 | 0.0 | 2.0 | 0.00 | 0.00 | 0.00 | 23 | 1010.0 |
| 20260502000059 | 66 | 322 | 1.0 | 7.0 | 0.00 | 0.00 | 0.00 | 21 | 1010.1 |
| 20260501234558 | 65 | 55 | 6.0 | 11.0 | 0.00 | 0.00 | 0.00 | 19 | 1010.1 |
| 20260501233052 | 66 | 184 | 1.0 | 6.0 | 0.00 | 0.00 | 0.00 | 20 | 1010.2 |
| 20260501231558 | 66 | 122 | 1.0 | 6.0 | 0.00 | 0.00 | 0.00 | 22 | 1010.4 |
| 20260501230048 | 67 | 210 | 1.0 | 7.0 | 0.00 | 0.00 | 0.00 | 19 | 1010.8 |
| 20260501224549 | 66 | 105 | 4.0 | 10.0 | 0.00 | 0.00 | 0.00 | 19 | 1010.9 |
| 20260501223051 | 66 | 151 | 1.0 | 6.0 | 0.00 | 0.00 | 0.00 | 20 | 1011.0 |
| 20260501221537 | 66 | 130 | 1.0 | 8.0 | 0.00 | 0.00 | 0.00 | 20 | 1011.2 |
| 20260501220034 | 65 | 240 | 2.0 | 8.0 | 0.00 | 0.00 | 0.00 | 22 | 1011.3 |